sat.trackr.live / text

‹ back to catalog

QUICK3

NORAD 64558 · 2025-135AG

PAYLOAD ACTIVE UNKNOWN

§ Identity

Operator
Country
GER
Launch date
2025-06-23
Launch site
AFWTR
Launch vehicle
Mass (kg)
RCS (m²)

External: N2YO · Heavens-Above · Gunter

§ Orbital elements

Epoch: 2026-09-21T21:08:46.366944Z

Period
94.16 min
Inclination
97.4817°
Eccentricity
0.0005176
Mean motion
15.29333682 rev/d
Perigee alt
474.3 km
Apogee alt
481.4 km
Semi-major
6,855.9 km
B*
3.3904e-4
RAAN
21.7463°
Arg perigee
166.8462°
Mean anomaly
193.2914°
Rev number
6,962

§ Raw data

QUICK31 64558U 25135AG  26264.88109221  .00009575  00000+0  33904-3 0  99922 64558  97.4817  21.7463 0005176 166.8462 193.2914 15.29333682 69625

JSON: /api/v1/satellites/64558 · /tle

For live sub-satellite position, see the globe view (requires WebGL).

§ Visibility from observer

Set your observer location to see the next 7 days of passes ≥ 10°. The values pass through the URL so the page stays shareable.

No JS? Fill the form by hand. The geolocation button needs JavaScript.

§ Radio — SatNOGS DB

ModeDescriptionDownlinkUplink
FM S-band telemetry 2.283 GHz
GFSK UHF Telemetry 401.050 MHz

2 transmitters · refreshed weekly from db.satnogs.org